KLM3RK EHAM-LIRF

Flight info

Callsign KLM3RK
Flight time N/A
Altitude 35000
Route LOPIK N852 SUTAL DCT GTQ DCT DEVDI DCT ODINA DCT EKPAL DCT TINKU DCT XIBIL
Aircraft A21N/M-SDE2E3FGHIRWXY/LB1

Departure

Time N/A
Airport Amsterdam Airport Schiphol (EHAM)

Arrival

Time 2026-05-03 21:21
Airport Rome–Fiumicino Leonardo da Vinci International Airport (LIRF)
Time Latitude Longitude Altitude Speed Heading
2026-05-03 20:15 48.10996 7.30482 35015 ft 435 kts 160°
2026-05-03 20:15 48.05457 7.34131 35022 ft 435 kts 160°
2026-05-03 20:16 47.99918 7.37764 35024 ft 435 kts 160°
2026-05-03 20:16 47.94366 7.41413 35027 ft 436 kts 160°
2026-05-03 20:17 47.88806 7.45049 35034 ft 436 kts 160°
2026-05-03 20:17 47.83247 7.48669 35043 ft 436 kts 160°
2026-05-03 20:18 47.77684 7.52292 35053 ft 436 kts 160°
2026-05-03 20:18 47.72127 7.55993 35051 ft 439 kts 159°
2026-05-03 20:19 47.66610 7.59885 35041 ft 440 kts 158°
2026-05-03 20:19 47.61078 7.63761 35054 ft 440 kts 158°
2026-05-03 20:20 47.55545 7.67637 35056 ft 440 kts 158°
2026-05-03 20:20 47.49993 7.71523 35050 ft 442 kts 158°
2026-05-03 20:21 47.44437 7.75420 35061 ft 442 kts 158°
2026-05-03 20:21 47.38889 7.79298 35076 ft 441 kts 158°
2026-05-03 20:22 47.33331 7.83166 35075 ft 442 kts 159°
2026-05-03 20:22 47.27757 7.87037 35069 ft 443 kts 159°
2026-05-03 20:23 47.22187 7.90901 35068 ft 443 kts 159°
2026-05-03 20:23 47.16612 7.94764 35058 ft 443 kts 159°
2026-05-03 20:24 47.11035 7.98616 35056 ft 443 kts 159°
2026-05-03 20:24 47.05444 8.02459 35061 ft 444 kts 159°
2026-05-03 20:25 46.99844 8.06301 35064 ft 444 kts 159°
2026-05-03 20:25 46.94248 8.10133 35067 ft 444 kts 159°
2026-05-03 20:26 46.88650 8.13954 35050 ft 444 kts 159°
2026-05-03 20:26 46.83069 8.17756 35050 ft 447 kts 159°
2026-05-03 20:27 46.77432 8.21598 35075 ft 447 kts 159°
2026-05-03 20:27 46.71756 8.25439 35076 ft 447 kts 159°
2026-05-03 20:28 46.66146 8.29230 35083 ft 447 kts 159°
2026-05-03 20:28 46.60465 8.33065 35093 ft 447 kts 159°
2026-05-03 20:29 46.54816 8.36870 35095 ft 447 kts 159°
2026-05-03 20:29 46.49211 8.40641 35105 ft 448 kts 159°
2026-05-03 20:30 46.43558 8.44424 35111 ft 447 kts 159°
2026-05-03 20:30 46.37911 8.48207 35100 ft 447 kts 159°
2026-05-03 20:31 46.32268 8.51987 35117 ft 448 kts 159°
2026-05-03 20:31 46.26613 8.55749 35119 ft 447 kts 159°
2026-05-03 20:32 46.20944 8.59511 35115 ft 451 kts 160°
2026-05-03 20:32 46.15257 8.63284 35137 ft 449 kts 160°
2026-05-03 20:33 46.09632 8.67244 35116 ft 454 kts 153°
2026-05-03 20:33 46.04355 8.72243 35140 ft 454 kts 150°
2026-05-03 20:34 45.99085 8.77303 35120 ft 456 kts 151°
2026-05-03 20:34 45.93796 8.82325 35117 ft 456 kts 151°
2026-05-03 20:35 45.88497 8.87355 35098 ft 456 kts 151°
2026-05-03 20:35 45.83203 8.92371 35104 ft 456 kts 152°
2026-05-03 20:36 45.77896 8.97383 35103 ft 458 kts 152°
2026-05-03 20:36 45.72602 9.02373 35096 ft 458 kts 152°
2026-05-03 20:37 45.67276 9.07379 35082 ft 458 kts 152°
2026-05-03 20:37 45.61942 9.12384 35085 ft 458 kts 152°
2026-05-03 20:38 45.57464 9.16580 35077 ft 461 kts 152°
2026-05-03 20:38 45.52097 9.21594 35081 ft 461 kts 152°
2026-05-03 20:39 45.46724 9.26601 35082 ft 461 kts 152°
2026-05-03 20:39 45.41345 9.31573 35082 ft 461 kts 152°
2026-05-03 20:40 45.35951 9.36555 35076 ft 463 kts 151°
2026-05-03 20:40 45.30556 9.41552 35127 ft 463 kts 151°
2026-05-03 20:41 45.25164 9.46543 35111 ft 463 kts 151°
2026-05-03 20:41 45.19759 9.51509 35093 ft 463 kts 151°
2026-05-03 20:42 45.14345 9.56486 35079 ft 466 kts 152°
2026-05-03 20:42 45.08945 9.61443 35088 ft 466 kts 152°
2026-05-03 20:43 45.03500 9.66422 35089 ft 466 kts 151°
2026-05-03 20:43 44.98045 9.71395 35060 ft 466 kts 151°
2026-05-03 20:44 44.92582 9.76362 35050 ft 468 kts 151°
2026-05-03 20:44 44.87111 9.81350 35052 ft 468 kts 152°
2026-05-03 20:45 44.81640 9.86304 35063 ft 468 kts 152°
2026-05-03 20:45 44.76160 9.91257 35090 ft 468 kts 151°
2026-05-03 20:46 44.70672 9.96201 35123 ft 469 kts 151°
2026-05-03 20:46 44.65183 10.01148 35129 ft 469 kts 151°
2026-05-03 20:47 44.59691 10.06084 35155 ft 468 kts 151°
2026-05-03 20:47 44.54202 10.10994 35158 ft 468 kts 151°
2026-05-03 20:48 44.48707 10.15869 35206 ft 466 kts 153°
2026-05-03 20:48 44.42792 10.19337 35218 ft 460 kts 164°
2026-05-03 20:49 44.36767 10.22422 35234 ft 462 kts 163°
2026-05-03 20:49 44.30747 10.25587 35222 ft 462 kts 163°
2026-05-03 20:50 44.24726 10.28770 35217 ft 462 kts 163°
2026-05-03 20:50 44.18706 10.31941 35247 ft 462 kts 163°
2026-05-03 20:51 44.12680 10.35097 35245 ft 463 kts 163°
2026-05-03 20:51 44.06640 10.38260 35255 ft 463 kts 163°
2026-05-03 20:52 44.00609 10.41413 35227 ft 463 kts 163°
2026-05-03 20:52 43.94570 10.44566 35204 ft 463 kts 163°
2026-05-03 20:53 43.88910 10.47499 35173 ft 463 kts 163°
2026-05-03 20:53 43.82876 10.50636 35163 ft 463 kts 163°
2026-05-03 20:54 43.76885 10.53741 35148 ft 463 kts 164°
2026-05-03 20:54 43.68155 10.57849 35126 ft 463 kts 165°
2026-05-03 20:55 43.62009 10.60709 35146 ft 467 kts 165°
2026-05-03 20:55 43.56423 10.63295 35158 ft 467 kts 165°
2026-05-03 20:56 43.50262 10.66149 35156 ft 468 kts 165°
2026-05-03 20:56 43.44498 10.68816 35165 ft 468 kts 166°
2026-05-03 20:59 43.38803 10.71419 34733 ft 465 kts 166°
2026-05-03 20:59 43.35726 10.72828 34459 ft 466 kts 166°
2026-05-03 20:59 43.32757 10.74189 34214 ft 467 kts 166°
2026-05-03 21:00 43.29673 10.75611 33933 ft 468 kts 166°
2026-05-03 21:00 43.27628 10.76554 33751 ft 469 kts 165°
2026-05-03 21:00 43.23485 10.78462 33391 ft 469 kts 165°
2026-05-03 21:00 43.20395 10.79881 33120 ft 469 kts 165°
2026-05-03 21:01 43.17347 10.81276 32869 ft 470 kts 165°
2026-05-03 21:01 43.14243 10.82693 32614 ft 470 kts 165°
2026-05-03 21:01 43.11143 10.84110 32343 ft 470 kts 165°
2026-05-03 21:01 43.08027 10.85529 32078 ft 476 kts 162°
2026-05-03 21:02 43.05212 10.86813 31852 ft 471 kts 165°
2026-05-03 21:02 43.02102 10.88224 31608 ft 472 kts 165°
2026-05-03 21:02 42.98984 10.89641 31358 ft 473 kts 165°
2026-05-03 21:02 42.95852 10.91064 31012 ft 472 kts 165°
2026-05-03 21:03 42.92746 10.92472 30357 ft 470 kts 165°
2026-05-03 21:03 42.89645 10.93876 29468 ft 470 kts 164°
2026-05-03 21:03 42.86538 10.95278 28691 ft 468 kts 164°
2026-05-03 21:03 42.83486 10.96669 28301 ft 457 kts 163°
2026-05-03 21:04 42.80653 10.98520 28006 ft 448 kts 148°
2026-05-03 21:04 42.78327 11.01314 27769 ft 454 kts 131°
2026-05-03 21:04 42.76480 11.04905 27561 ft 470 kts 123°
2026-05-03 21:04 42.74748 11.08687 27219 ft 470 kts 122°
2026-05-03 21:05 42.73239 11.11984 26668 ft 467 kts 123°
2026-05-03 21:05 42.71501 11.15701 25993 ft 465 kts 123°
2026-05-03 21:05 42.69761 11.19394 25323 ft 464 kts 123°
2026-05-03 21:05 42.68019 11.23082 24638 ft 463 kts 123°
2026-05-03 21:06 42.66280 11.26752 23976 ft 459 kts 123°
2026-05-03 21:06 42.64558 11.30381 23231 ft 455 kts 123°
2026-05-03 21:06 42.62847 11.33966 22486 ft 449 kts 123°
2026-05-03 21:06 42.61155 11.37503 21764 ft 444 kts 124°
2026-05-03 21:07 42.59520 11.40935 21093 ft 438 kts 123°
2026-05-03 21:07 42.57882 11.44384 20526 ft 431 kts 124°
2026-05-03 21:07 42.56276 11.47747 20128 ft 420 kts 124°
2026-05-03 21:07 42.54667 11.51016 19448 ft 416 kts 128°
2026-05-03 21:08 42.52715 11.53889 18517 ft 417 kts 138°
2026-05-03 21:08 42.50595 11.56553 17776 ft 413 kts 139°
2026-05-03 21:08 42.48498 11.59177 16924 ft 407 kts 138°
2026-05-03 21:08 42.46434 11.61777 15854 ft 403 kts 138°
2026-05-03 21:09 42.44404 11.64340 14845 ft 397 kts 137°
2026-05-03 21:09 42.42394 11.66875 13848 ft 392 kts 137°
2026-05-03 21:09 42.40438 11.69345 12850 ft 386 kts 137°
2026-05-03 21:09 42.38470 11.71833 11859 ft 380 kts 137°
2026-05-03 21:10 42.36554 11.74250 10896 ft 374 kts 137°
2026-05-03 21:10 42.34660 11.76632 10004 ft 368 kts 137°
2026-05-03 21:10 42.32803 11.78972 9086 ft 361 kts 137°
2026-05-03 21:10 42.30986 11.81262 8193 ft 354 kts 137°
2026-05-03 21:11 42.29204 11.83497 7334 ft 347 kts 137°
2026-05-03 21:11 42.27465 11.85680 6928 ft 329 kts 137°
2026-05-03 21:11 42.25872 11.87679 6966 ft 298 kts 137°
2026-05-03 21:11 42.24427 11.89491 7060 ft 275 kts 137°
2026-05-03 21:12 42.23043 11.91225 7213 ft 261 kts 137°
2026-05-03 21:12 42.21763 11.92834 7262 ft 244 kts 137°
2026-05-03 21:12 42.20542 11.94362 7121 ft 238 kts 137°
2026-05-03 21:12 42.19327 11.95882 7161 ft 238 kts 137°
2026-05-03 21:13 42.18112 11.97402 7225 ft 237 kts 137°
2026-05-03 21:13 42.16906 11.98907 7046 ft 236 kts 137°
2026-05-03 21:13 42.15719 12.00389 6810 ft 236 kts 137°
2026-05-03 21:13 42.14521 12.01887 6540 ft 235 kts 137°
2026-05-03 21:14 42.13327 12.03377 6235 ft 233 kts 137°
2026-05-03 21:14 42.12139 12.04860 5926 ft 234 kts 137°
2026-05-03 21:14 42.10946 12.06346 5624 ft 232 kts 137°
2026-05-03 21:14 42.09766 12.07816 5324 ft 231 kts 137°
2026-05-03 21:15 42.08585 12.09286 5034 ft 231 kts 137°
2026-05-03 21:15 42.07409 12.10751 4724 ft 230 kts 137°
2026-05-03 21:15 42.06152 12.12067 4382 ft 230 kts 151°
2026-05-03 21:15 42.04702 12.12944 4072 ft 228 kts 161°
2026-05-03 21:16 42.03192 12.13559 3744 ft 227 kts 163°
2026-05-03 21:16 42.01685 12.14194 3398 ft 226 kts 164°
2026-05-03 21:16 42.00183 12.14826 3044 ft 227 kts 165°
2026-05-03 21:16 41.98661 12.15465 2706 ft 229 kts 165°
2026-05-03 21:17 41.97163 12.16095 2511 ft 220 kts 165°
2026-05-03 21:17 41.96222 12.16490 2472 ft 210 kts 165°
2026-05-03 21:17 41.94509 12.17211 2555 ft 171 kts 166°
2026-05-03 21:17 41.93482 12.17641 2519 ft 144 kts 166°
2026-05-03 21:18 41.92529 12.18040 2386 ft 143 kts 166°
2026-05-03 21:18 41.91578 12.18438 2218 ft 143 kts 166°
2026-05-03 21:18 41.90628 12.18836 1909 ft 142 kts 167°
2026-05-03 21:18 41.89691 12.19229 1731 ft 141 kts 168°
2026-05-03 21:19 41.88755 12.19621 1535 ft 141 kts 168°
2026-05-03 21:19 41.87823 12.20012 1355 ft 140 kts 167°
2026-05-03 21:19 41.86896 12.20400 1161 ft 140 kts 166°
2026-05-03 21:19 41.85965 12.20790 976 ft 139 kts 166°
2026-05-03 21:20 41.85042 12.21168 784 ft 139 kts 166°
2026-05-03 21:20 41.84126 12.21538 626 ft 137 kts 166°
2026-05-03 21:20 41.83215 12.21931 439 ft 138 kts 166°
2026-05-03 21:20 41.82323 12.22321 226 ft 136 kts 166°
2026-05-03 21:21 41.81417 12.22696 48 ft 136 kts 166°
2026-05-03 21:21 41.80565 12.23056 19 ft 117 kts 163°
2026-05-03 21:21 41.79939 12.23310 23 ft 69 kts 162°
2026-05-03 21:21 41.79641 12.23446 18 ft 37 kts 153°
2026-05-03 21:22 41.79434 12.23650 20 ft 38 kts 132°
2026-05-03 21:22 41.79256 12.23917 21 ft 36 kts 116°
2026-05-03 21:22 41.79222 12.24052 20 ft 12 kts 90°
2026-05-03 21:22 41.79228 12.24172 21 ft 14 kts 66°
2026-05-03 21:23 41.79249 12.24249 19 ft 0 kts 71°